Princeton, MN

11:13 PM CST on November 16, 2019 (GMT -0600)
Princeton Municipal

Weather History for KPNM - August, 2019

Change the Weather History Date:

Wednesday, August 28, 2019

  Actual Average Record
Temperature  
Mean Temperature 63 °F -  
Max Temperature 71 °F 76 °F 89 °F (2013)
Min Temperature 55 °F 54 °F 48 °F (2011)
Degree Days  
Heating Degree Days 2    
Growing Degree Days 13 (Base 50)    
Moisture  
Dew Point 50 °F    
Average Humidity 68    
Maximum Humidity 94    
Minimum Humidity 38    
Precipitation  
Precipitation 0.00 in - - ()
Sea Level Pressure  
Sea Level Pressure 29.86 in    
Wind  
Wind Speed 9 mph (WSW)    
Max Wind Speed 18 mph    
Max Gust Speed 28 mph    
Visibility 10 miles    
Events      
Averages and records for this station are not official NWS values.
T = Trace of Precipitation, MM = Missing Value Source: NWS Daily Summary

Daily Weather History Graph

Daily Weather History Graph

Search for Another Location

Airport or City:

Astronomy

Aug. 28, 2019 Rise Set
Actual Time 6:30 AM CDT 7:59 PM CDT
Civil Twilight 5:59 AM CDT 8:30 PM CDT
Nautical Twilight 5:22 AM CDT 9:08 PM CDT
Astronomical Twilight 4:41 AM CDT 9:48 PM CDT
Moon 3:54 AM CDT (8/28) 7:19 PM CDT (8/28)
Length of Visible Light 14h 31m
Length of Day
13h 29m
Waning Crescent, 4% of the Moon is Illuminated
Aug 28
Waning Crescent
Aug 30
New
Sep 5
First Quarter
Sep 13
Full
Sep 21
Last Quarter

Hourly Weather History & Observations

Time (CDT) Temp. Dew Point Humidity Pressure Visibility Wind Dir Wind Speed Gust Speed Precip Events Conditions
12:15 AM 57.2 °F 53.6 °F 88% 29.78 in 10.0 mi West 8.1 mph - N/A   Mostly Cloudy
12:16 AM 57.2 °F 53.6 °F 88% 29.78 in 10.0 mi West 9.2 mph - N/A   Mostly Cloudy
12:35 AM 57.2 °F 53.6 °F 88% 29.78 in 10.0 mi West 8.1 mph - N/A   Mostly Cloudy
12:36 AM 57.2 °F 53.6 °F 88% 29.78 in 10.0 mi West 9.2 mph - N/A   Mostly Cloudy
12:59 AM 57.2 °F 53.6 °F 88% 29.78 in 10.0 mi West 8.1 mph - N/A   Overcast
1:17 AM 57.2 °F 53.6 °F 88% 29.78 in 10.0 mi West 10.4 mph - N/A   Overcast
1:35 AM 59.0 °F 51.8 °F 77% 29.78 in 10.0 mi West 8.1 mph 18.4 mph N/A   Overcast
1:36 AM 59.0 °F 51.8 °F 77% 29.78 in 10.0 mi West 8.1 mph 17.3 mph N/A   Overcast
1:55 AM 57.2 °F 51.8 °F 82% 29.79 in 10.0 mi West 11.5 mph 20.7 mph N/A   Scattered Clouds
1:56 AM 57.2 °F 51.8 °F 82% 29.79 in 10.0 mi West 11.5 mph 20.7 mph N/A   Scattered Clouds
2:15 AM 57.2 °F 50.0 °F 77% 29.79 in 10.0 mi West 12.7 mph 16.1 mph N/A   Clear
2:38 AM 55.4 °F 50.0 °F 82% 29.79 in 10.0 mi West 5.8 mph - N/A   Scattered Clouds
2:56 AM 55.4 °F 50.0 °F 82% 29.79 in 10.0 mi WSW 9.2 mph - N/A   Clear
3:15 AM 55.4 °F 50.0 °F 82% 29.80 in 10.0 mi West 6.9 mph - N/A   Clear
3:35 AM 57.2 °F 50.0 °F 77% 29.80 in 10.0 mi West 8.1 mph - N/A   Mostly Cloudy
3:59 AM 55.4 °F 50.0 °F 82% 29.80 in 10.0 mi WSW 8.1 mph - N/A   Scattered Clouds
4:17 AM 55.4 °F 50.0 °F 82% 29.80 in 10.0 mi WSW 9.2 mph - N/A   Scattered Clouds
4:35 AM 55.4 °F 51.8 °F 88% 29.80 in 10.0 mi SW 4.6 mph - N/A   Clear
4:55 AM 55.4 °F 51.8 °F 88% 29.80 in 10.0 mi SW 10.4 mph - N/A   Mostly Cloudy
5:15 AM 57.2 °F 51.8 °F 82% 29.81 in 10.0 mi WSW 8.1 mph - N/A   Overcast
5:20 AM 57.2 °F 51.8 °F 82% 29.81 in 10.0 mi WSW 10.4 mph 16.1 mph N/A   Overcast
5:38 AM 57.2 °F 51.8 °F 82% 29.81 in 10.0 mi WSW 10.4 mph 17.3 mph N/A   Overcast
5:56 AM 57.2 °F 51.8 °F 82% 29.82 in 10.0 mi West 9.2 mph 16.1 mph N/A   Overcast
6:35 AM 55.4 °F 51.8 °F 88% 29.83 in 10.0 mi WSW 9.2 mph 16.1 mph N/A   Clear
6:55 AM 55.4 °F 50.0 °F 82% 29.84 in 10.0 mi WSW 9.2 mph - N/A   Clear
6:59 AM 55.4 °F 50.0 °F 82% 29.84 in 10.0 mi WSW 6.9 mph - N/A   Clear
7:17 AM 55.4 °F 50.0 °F 82% 29.85 in 10.0 mi WSW 9.2 mph - N/A   Clear
7:35 AM 55.4 °F 51.8 °F 88% 29.85 in 10.0 mi WSW 6.9 mph - N/A   Clear
7:55 AM 55.4 °F 51.8 °F 88% 29.85 in 10.0 mi WSW 10.4 mph - N/A   Clear
8:15 AM 57.2 °F 51.8 °F 82% 29.86 in 10.0 mi WSW 11.5 mph 17.3 mph N/A   Clear
8:20 AM 57.2 °F 51.8 °F 82% 29.86 in 10.0 mi WSW 9.2 mph 17.3 mph N/A   Clear
8:38 AM 59.0 °F 51.8 °F 77% 29.86 in 10.0 mi West 10.4 mph 19.6 mph N/A   Clear
8:56 AM 59.0 °F 51.8 °F 77% 29.86 in 10.0 mi West 11.5 mph 18.4 mph N/A   Clear
9:15 AM 60.8 °F 50.0 °F 68% 29.87 in 10.0 mi West 12.7 mph 17.3 mph N/A   Clear
9:16 AM 60.8 °F 50.0 °F 68% 29.87 in 10.0 mi West 12.7 mph 17.3 mph N/A   Clear
9:35 AM 60.8 °F 51.8 °F 72% 29.87 in 10.0 mi West 13.8 mph 19.6 mph N/A   Clear
9:56 AM 62.6 °F 51.8 °F 68% 29.88 in 10.0 mi West 13.8 mph 20.7 mph N/A   Clear
10:15 AM 62.6 °F 50.0 °F 63% 29.88 in 10.0 mi West 12.7 mph 20.7 mph N/A   Clear
10:16 AM 62.6 °F 50.0 °F 63% 29.88 in 10.0 mi West 11.5 mph 20.7 mph N/A   Clear
10:35 AM 64.4 °F 50.0 °F 59% 29.88 in 10.0 mi WSW 11.5 mph 17.3 mph N/A   Scattered Clouds
10:36 AM 64.4 °F 50.0 °F 59% 29.89 in 10.0 mi WSW 12.7 mph 17.3 mph N/A   Scattered Clouds
10:59 AM 64.4 °F 50.0 °F 59% 29.88 in 10.0 mi West 13.8 mph 23.0 mph N/A   Clear
11:17 AM 64.4 °F 50.0 °F 59% 29.89 in 10.0 mi West 15.0 mph 25.3 mph N/A   Scattered Clouds
11:35 AM 66.2 °F 50.0 °F 56% 29.89 in 10.0 mi West 15.0 mph 23.0 mph N/A   Scattered Clouds
11:55 AM 66.2 °F 48.2 °F 52% 29.90 in 10.0 mi West 17.3 mph 25.3 mph N/A   Clear
12:15 PM 66.2 °F 48.2 °F 52% 29.90 in 10.0 mi West 16.1 mph 24.2 mph N/A   Clear
12:38 PM 68.0 °F 48.2 °F 49% 29.90 in 10.0 mi West 18.4 mph 26.5 mph N/A   Clear
12:56 PM 68.0 °F 48.2 °F 49% 29.89 in 10.0 mi West 17.3 mph 27.6 mph N/A   Clear
1:15 PM 69.8 °F 48.2 °F 46% 29.89 in 10.0 mi West 16.1 mph 25.3 mph N/A   Clear
1:35 PM 69.8 °F 46.4 °F 43% 29.90 in 10.0 mi West 17.3 mph 24.2 mph N/A   Clear
1:58 PM 69.8 °F 46.4 °F 43% 29.89 in 10.0 mi West 15.0 mph 23.0 mph N/A   Clear
2:17 PM 69.8 °F 46.4 °F 43% 29.89 in 10.0 mi West 16.1 mph 23.0 mph N/A   Clear
2:36 PM 71.6 °F 46.4 °F 41% 29.90 in 10.0 mi West 13.8 mph 20.7 mph N/A   Clear
2:55 PM 71.6 °F 46.4 °F 41% 29.90 in 10.0 mi West 17.3 mph 21.9 mph N/A   Clear
2:56 PM 71.6 °F 46.4 °F 41% 29.90 in 10.0 mi West 16.1 mph 21.9 mph N/A   Clear
3:15 PM 71.6 °F 48.2 °F 43% 29.90 in 10.0 mi West 15.0 mph 21.9 mph N/A   Clear
3:20 PM 71.6 °F 46.4 °F 41% 29.90 in 10.0 mi West 13.8 mph 21.9 mph N/A   Clear
3:38 PM 71.6 °F 46.4 °F 41% 29.90 in 10.0 mi West 17.3 mph 24.2 mph N/A   Clear
3:56 PM 71.6 °F 46.4 °F 41% 29.90 in 10.0 mi WSW 17.3 mph 24.2 mph N/A   Clear
4:15 PM 71.6 °F 44.6 °F 38% 29.90 in 10.0 mi WSW 11.5 mph 21.9 mph N/A   Clear
4:16 PM 71.6 °F 46.4 °F 41% 29.90 in 10.0 mi WSW 12.7 mph 21.9 mph N/A   Clear
4:35 PM 71.6 °F 48.2 °F 43% 29.90 in 10.0 mi West 13.8 mph 23.0 mph N/A   Clear
4:36 PM 71.6 °F 48.2 °F 43% 29.90 in 10.0 mi WSW 15.0 mph 23.0 mph N/A   Clear
4:58 PM 71.6 °F 46.4 °F 41% 29.90 in 10.0 mi West 13.8 mph 23.0 mph N/A   Clear
5:17 PM 71.6 °F 46.4 °F 41% 29.90 in 10.0 mi West 13.8 mph - N/A   Clear
5:35 PM 71.6 °F 46.4 °F 41% 29.90 in 10.0 mi West 11.5 mph 17.3 mph N/A   Clear
5:36 PM 71.6 °F 46.4 °F 41% 29.90 in 10.0 mi West 11.5 mph 18.4 mph N/A   Clear
5:55 PM 71.6 °F 48.2 °F 43% 29.90 in 10.0 mi West 10.4 mph - N/A   Clear
5:56 PM 71.6 °F 48.2 °F 43% 29.90 in 10.0 mi West 11.5 mph - N/A   Clear
6:15 PM 69.8 °F 48.2 °F 46% 29.89 in 10.0 mi WSW 10.4 mph 17.3 mph N/A   Clear
6:20 PM 69.8 °F 48.2 °F 46% 29.89 in 10.0 mi West 10.4 mph - N/A   Clear
6:37 PM 69.8 °F 50.0 °F 49% 29.89 in 10.0 mi West 6.9 mph - N/A   Clear
6:56 PM 68.0 °F 50.0 °F 52% 29.89 in 10.0 mi WSW 4.6 mph - N/A   Clear
7:15 PM 68.0 °F 51.8 °F 56% 29.88 in 10.0 mi WSW 3.5 mph - N/A   Clear
7:16 PM 68.0 °F 51.8 °F 56% 29.88 in 10.0 mi WSW 3.5 mph - N/A   Clear
7:35 PM 66.2 °F 51.8 °F 60% 29.88 in 10.0 mi Calm Calm - N/A   Clear
7:36 PM 66.2 °F 51.8 °F 60% 29.88 in 10.0 mi Calm Calm - N/A   Clear
7:59 PM 64.4 °F 51.8 °F 64% 29.88 in 10.0 mi Calm Calm - N/A   Clear
8:17 PM 60.8 °F 53.6 °F 77% 29.88 in 10.0 mi Calm Calm - N/A   Clear
8:35 PM 60.8 °F 53.6 °F 77% 29.89 in 10.0 mi Calm Calm - N/A   Clear
8:55 PM 55.4 °F 51.8 °F 88% 29.89 in 10.0 mi Calm Calm - N/A   Clear
8:56 PM 55.4 °F 51.8 °F 88% 29.89 in 10.0 mi Calm Calm - N/A   Clear
9:15 PM 55.4 °F 51.8 °F 88% 29.89 in 10.0 mi Calm Calm - N/A   Clear
9:38 PM 57.2 °F 53.6 °F 88% 29.89 in 10.0 mi Calm Calm - N/A   Clear
9:56 PM 59.0 °F 53.6 °F 82% 29.89 in 10.0 mi Calm Calm - N/A   Clear
10:15 PM 59.0 °F 51.8 °F 77% 29.89 in 10.0 mi Calm Calm - N/A   Clear
10:16 PM 57.2 °F 51.8 °F 82% 29.89 in 10.0 mi Calm Calm - N/A   Clear
10:35 PM 55.4 °F 51.8 °F 88% 29.89 in 10.0 mi Calm Calm - N/A   Clear
10:59 PM 55.4 °F 53.6 °F 94% 29.89 in 10.0 mi Calm Calm - N/A   Clear
11:17 PM 55.4 °F 51.8 °F 88% 29.88 in 10.0 mi Calm Calm - N/A   Clear
11:35 PM 55.4 °F 53.6 °F 94% 29.88 in 10.0 mi Calm Calm - N/A   Clear
11:36 PM 55.4 °F 53.6 °F 94% 29.88 in 10.0 mi Calm Calm - N/A   Clear
11:55 PM 57.2 °F 53.6 °F 88% 29.87 in 10.0 mi South 3.5 mph - N/A   Clear
11:56 PM 57.2 °F 53.6 °F 88% 29.87 in 10.0 mi South 3.5 mph - N/A   Clear